This demonstration page uses our WeatherBlox Daily Observations layout. Learn more.

40.92945, -100.16068

Hourly Observations for March 14, 2015

Temp ( °F °C ) Dew Point ( °F °C ) Humidity (%) Winds ( mph kmh ) Pressure ( in mb ) Visibility ( mi km ) Precip ( " mm )
12:15 am 00:15 Clear 40 4.3 25 -3.7 56 56 N 8 13 30.39 1029 10 16.0934 N/A
12:35 am 00:35 Clear 39 3.8 25 -4 57 57 N 8 13 30.36 1028 10 16.0934 N/A
12:55 am 00:55 Clear 38 3.3 26 -3.6 61 61 N 6 9 30.39 1029 10 16.0934 N/A
1:15 am 01:15 Clear 36 2.4 25 -4.1 63 63 N 5 7 30.39 1029 10 16.0934 N/A
1:35 am 01:35 Clear 35 1.7 25 -4 66 66 N 6 9 30.42 1030 10 16.0934 N/A
1:55 am 01:55 Clear 34 1.1 26 -3.4 72 72 NW 5 7 30.42 1030 10 16.0934 N/A
2:15 am 02:15 Clear 35 1.9 26 -3.2 69 69 NNW 7 11 30.42 1030 10 16.0934 N/A
2:35 am 02:35 Clear 33 0.7 26 -3.5 74 74 NNW 7 11 30.42 1030 10 16.0934 N/A
2:55 am 02:55 Clear 34 1 26 -3.1 74 74 N 8 13 30.42 1030 10 16.0934 N/A
3:15 am 03:15 Clear 33 0.5 26 -3.3 76 76 NW 3 6 30.42 1030 10 16.0934 N/A
3:35 am 03:35 Clear 32 0 26 -3.6 77 77 NNW 5 7 30.45 1031 10 16.0934 N/A
3:55 am 03:55 Clear 32 0 26 -3.2 79 79 WNW 8 13 30.45 1031 10 16.0934 N/A
4:15 am 04:15 Clear 32 0 26 -3.4 78 78 NW 9 15 30.45 1031 10 16.0934 N/A
4:35 am 04:35 Clear 31 -0.7 26 -3.6 81 81 NW 6 9 30.45 1031 10 16.0934 N/A
4:55 am 04:55 Clear 30 -1.2 26 -3.6 84 84 WNW 5 7 30.45 1031 10 16.0934 N/A
5:15 am 05:15 Clear 29 -1.8 24 -4.2 84 84 W 7 11 30.45 1031 10 16.0934 N/A
5:35 am 05:35 Clear 29 -1.5 25 -4 83 83 WNW 7 11 30.45 1031 10 16.0934 N/A
5:55 am 05:55 Clear 30 -1 26 -3.5 83 83 W 9 15 30.45 1031 10 16.0934 N/A
6:15 am 06:15 Clear 31 -0.7 26 -3.5 82 82 W 8 13 30.48 1032 10 16.0934 N/A
6:35 am 06:35 Clear 30 -1.2 25 -3.7 83 83 W 8 13 30.48 1032 10 16.0934 N/A
6:55 am 06:55 Clear 29 -1.8 24 -4.2 84 84 W 7 11 30.48 1032 10 16.0934 N/A
7:15 am 07:15 Clear 28 -2.3 24 -4.4 86 86 W 8 13 30.48 1032 10 16.0934 N/A
7:35 am 07:35 Clear 28 -2.5 24 -4.4 87 87 W 8 13 30.48 1032 10 16.0934 N/A
7:55 am 07:55 Sunny 27 -2.9 23 -4.8 87 87 W 7 11 30.5 1033 10 16.0934 N/A
8:15 am 08:15 Sunny 27 -2.9 24 -4.6 88 88 W 7 11 30.5 1033 10 16.0934 N/A
8:35 am 08:35 Sunny 29 -1.9 25 -3.7 88 88 W 8 13 30.48 1032 10 16.0934 N/A
8:55 am 08:55 Sunny 31 -0.6 26 -3.1 83 83 WNW 7 11 30.5 1033 10 16.0934 N/A
9:15 am 09:15 Sunny 33 0.5 28 -2.3 82 82 WNW 8 13 30.5 1033 10 16.0934 N/A
9:35 am 09:35 Sunny 37 2.9 29 -1.5 73 73 WNW 9 15 30.48 1032 10 16.0934 N/A
9:55 am 09:55 Sunny 41 4.9 30 -0.9 66 66 WNW 8 13 30.45 1031 10 16.0934 N/A
10:15 am 10:15 Sunny 45 7 31 -0.4 60 60 WNW 7 11 30.45 1031 10 16.0934 N/A
10:35 am 10:35 Sunny 48 8.9 31 -0.3 53 53 WNW 6 9 30.42 1030 10 16.0934 N/A
10:55 am 10:55 Sunny 51 10.5 29 -1.4 44 44 W 6 9 30.39 1029 10 16.0934 N/A
11:15 am 11:15 Sunny 54 12 28 -2.5 37 37 Calm 30.36 1028 10 16.0934 N/A
11:35 am 11:35 Sunny 56 13.1 26 -3.3 32 32 Calm 30.36 1028 10 16.0934 N/A
11:55 am 11:55 Sunny 58 14.3 24 -4.5 27 27 Calm 30.33 1027 10 16.0934 N/A
12:15 pm 12:15 Sunny 59 15.1 20 -6.4 22 22 SE 6 9 30.33 1027 10 16.0934 N/A
12:35 pm 12:35 Sunny 60 15.6 20 -6.7 21 21 S 9 15 30.33 1027 10 16.0934 N/A
12:55 pm 12:55 Sunny 61 16 20 -6.9 20 20 E 3 6 30.3 1026 10 16.0934 N/A
1:15 pm 13:15 Sunny 61 16.3 19 -7.1 20 20 Calm 30.3 1026 10 16.0934 N/A
1:35 pm 13:35 Sunny 63 17.1 18 -7.9 17 17 SSE 6 9 30.27 1025 10 16.0934 N/A
1:55 pm 13:55 Sunny 63 17 17 -8.1 17 17 SSE 6 9 30.24 1024 10 16.0934 N/A
2:15 pm 14:15 Sunny 63 17.3 17 -8.4 17 17 SE 8 13 30.24 1024 10 16.0934 N/A
2:35 pm 14:35 Sunny 64 17.6 15 -9.2 15 15 S 8 13 30.21 1023 10 16.0934 N/A
2:55 pm 14:55 Sunny 65 18.1 15 -9.4 15 15 SSW 8 13 30.21 1023 10 16.0934 N/A
3:15 pm 15:15 Sunny 65 18.3 15 -9.7 14 14 SW 7 11 30.18 1022 10 16.0934 N/A
3:35 pm 15:35 Sunny 66 18.9 15 -9.5 14 14 S 8 13 30.15 1021 10 16.0934 N/A
3:55 pm 15:55 Sunny 66 18.9 15 -9.6 14 14 SW 7 11 30.15 1021 10 16.0934 N/A
4:15 pm 16:15 Sunny 66 19 14 -10 13 13 SSW 13 20 30.15 1021 10 16.0934 N/A
4:35 pm 16:35 Sunny 67 19.2 14 -10 13 13 SW 8 13 30.15 1021 10 16.0934 N/A
4:55 pm 16:55 Sunny 67 19.3 15 -9.5 13 13 SSW 9 15 30.15 1021 10 16.0934 N/A
5:15 pm 17:15 Sunny 66 19.1 17 -8.1 15 15 SW 12 19 30.12 1020 10 16.0934 N/A
5:35 pm 17:35 Sunny 66 19.1 16 -8.7 14 14 SW 8 13 30.12 1020 10 16.0934 N/A
5:55 pm 17:55 Sunny 66 18.8 15 -9.6 14 14 SSW 9 15 30.12 1020 10 16.0934 N/A
6:15 pm 18:15 Sunny 65 18.6 14 -9.8 14 14 SSW 9 15 30.12 1020 10 16.0934 N/A
6:35 pm 18:35 Sunny 65 18.5 14 -10 13 13 SSW 12 19 30.12 1020 10 16.0934 N/A
6:55 pm 18:55 Sunny 64 17.9 15 -9.7 14 14 SSW 9 15 30.15 1021 10 16.0934 N/A
7:15 pm 19:15 Sunny 62 16.7 16 -9 16 16 SSW 8 13 30.15 1021 10 16.0934 N/A
7:35 pm 19:35 Sunny 57 14 17 -8.1 21 21 S 9 15 30.18 1022 10 16.0934 N/A
7:55 pm 19:55 Clear 53 11.6 17 -8.4 24 24 SSW 9 15 30.18 1022 10 16.0934 N/A
8:15 pm 20:15 Clear 51 10.3 17 -8.4 26 26 S 9 15 30.21 1023 10 16.0934 N/A
8:35 pm 20:35 Clear 50 9.9 17 -8.6 26 26 S 10 17 30.21 1023 10 16.0934 N/A
8:55 pm 20:55 Clear 50 9.8 17 -8.5 27 27 S 10 17 30.21 1023 10 16.0934 N/A
9:15 pm 21:15 Clear 45 7.1 16 -9 31 31 S 10 17 30.21 1023 10 16.0934 N/A
9:35 pm 21:35 Clear 43 6.2 16 -9.1 33 33 S 9 15 30.24 1024 10 16.0934 N/A
9:55 pm 21:55 Clear 46 7.5 16 -8.7 31 31 S 8 13 30.24 1024 10 16.0934 N/A
10:15 pm 22:15 Clear 44 6.7 16 -8.9 32 32 S 9 15 30.24 1024 10 16.0934 N/A
10:35 pm 22:35 Clear 43 5.9 16 -8.7 35 35 S 9 15 30.21 1023 10 16.0934 N/A
10:55 pm 22:55 Clear 47 8.5 17 -8.5 29 29 S 13 20 30.18 1022 10 16.0934 N/A
11:15 pm 23:15 Clear 50 9.8 17 -8.6 27 27 S 13 20 30.18 1022 10 16.0934 N/A
11:35 pm 23:35 Clear 46 7.8 17 -8.6 31 31 S 10 17 30.21 1023 10 16.0934 N/A
11:55 pm 23:55 Clear 49 9.3 17 -8.5 28 28 S 16 26 30.18 1022 10 16.0934 N/A

Powered by AerisWeather